Wind_Speed
29 28 26 27 25 24 22 23 23 23 23 24 25 25 24 21 19 19 18 18 14 13 13 13 13 12 11 11 12 12 13 14 16 15 13 12 13 12 12 13 13 14 16
29 28 27 25 24 23 24 22 23 26 26 27 27 27 26 23 21 23 21 16 17 15 14 14 14 13 15 12 12 14 13 13 15 16 15 15 16 14 15 15 15 15 17
27 28 27 27 26 24 23 22 23 25 27 26 28 27 24 23 25 24 23 21 19 16 15 15 15 15 15 14 14 15 14 13 15 16 17 16 17 16 16 17 17 17 18
25 26 28 30 29 27 23 22 22 24 28 28 26 25 24 24 23 23 21 21 19 17 16 17 16 17 17 15 14 16 16 15 15 16 18 19 18 18 18 18 19 17 18
26 28 30 29 28 27 25 24 22 23 25 28 27 25 25 23 21 22 23 21 23 20 18 19 20 19 19 19 17 16 17 18 17 19 21 20 20 18 17 17 20 20 21
24 26 27 30 31 32 30 26 24 24 25 28 28 26 25 25 23 26 25 23 22 21 23 24 24 25 23 22 22 22 22 24 24 23 21 22 22 23 19 21 26 25 22
20 23 26 29 33 33 32 31 29 26 26 28 26 25 26 26 26 27 27 25 21 22 25 23 20 18 22 20 20 20 22 24 26 27 27 26 25 23 22 22 20 22 24
19 22 23 26 29 30 32 31 30 28 26 27 28 27 25 25 28 29 27 27 28 26 28 29 26 25 21 21 21 22 20 22 23 23 24 25 25 24 24 25 27 29 29
17 20 22 24 26 29 31 36 33 29 30 26 26 28 30 30 30 29 27 27 27 29 26 28 28 24 23 22 20 23 23 23 23 23 21 21 21 22 24 25 17 17 19
15 18 21 24 26 31 33 29 28 29 28 25 22 24 28 30 29 26 24 27 23 24 23 27 28 25 24 22 22 21 22 23 19 17 16 18 19 19 17 18 17 12 12
13 17 19 23 26 28 32 26 27 30 22 24 21 24 25 28 29 28 25 24 24 25 24 28 24 22 22 22 20 18 15 14 13 13 12 11 9 8 10 9 7 5 4
14 15 19 20 22 23 37 24 23 27 27 26 21 21 23 28 28 24 24 26 26 25 22 19 22 19 20 19 16 15 13 14 10 8 7 5 4 5 4 3 4 5 6
9 18 18 20 25 25 29 26 23 31 29 27 24 28 27 28 25 25 24 25 26 24 22 23 19 19 20 19 19 18 15 12 10 10 9 7 7 4 2 2 3 4 6
11 10 23 25 25 26 27 26 27 27 33 29 30 60 31 26 26 27 28 26 24 26 27 23 22 22 22 20 17 15 12 11 11 10 9 8 6 4 2 4 1 2 1
13 14 17 14 18 25 29 25 30 31 33 34 29 25 24 24 24 24 24 25 26 27 24 23 22 20 20 19 16 14 13 16 13 11 10 8 7 7 7 6 5 5 5
14 15 17 12 17 29 24 20 23 22 22 22 21 20 20 21 21 21 22 23 22 22 20 22 22 17 15 15 16 16 15 15 12 11 10 11 10 9 9 8 7 6 8
17 15 17 16 18 14 23 23 21 25 27 25 28 26 26 23 22 22 23 22 21 21 18 20 20 17 16 17 17 17 16 13 12 11 12 12 12 11 13 9 9 7 8
20 19 16 18 17 13 19 22 20 17 17 25 27 25 28 25 24 25 24 23 23 22 17 16 17 17 18 19 18 17 15 15 14 12 13 13 14 14 13 12 11 10 10
20 19 18 18 18 17 22 31 29 26 25 28 34 29 25 23 24 24 24 23 23 21 17 17 17 18 17 17 17 17 18 17 15 12 12 12 13 15 14 14 12 13 13
22 24 23 19 21 20 21 25 30 32 19 21 23 27 28 26 28 29 27 19 19 18 18 18 18 17 17 20 20 18 18 18 15 15 14 13 13 13 13 12 11 10 10
22 20 21 17 19 19 21 20 23 28 24 25 20 20 25 27 28 30 28 21 19 18 19 20 21 23 23 23 20 17 17 17 16 14 14 13 12 10 10 9 10 9 10
21 22 20 19 19 19 18 17 19 21 22 22 23 24 24 27 22 22 23 23 20 18 17 18 18 17 17 20 18 19 18 18 15 14 13 12 10 8 8 8 8 9 11
21 22 21 20 19 18 18 20 21 21 22 22 21 25 27 30 23 21 20 22 21 19 19 19 17 19 20 21 19 19 18 15 14 12 12 12 11 10 10 9 10 10 11
19 19 20 19 15 16 16 18 23 28 25 23 21 22 23 29 23 20 19 19 19 18 18 18 19 17 16 17 18 17 15 15 13 13 13 12 12 12 12 13 13 13 14
17 17 18 19 18 17 18 18 18 23 27 24 26 23 19 24 22 20 19 18 17 17 16 16 16 15 15 16 15 15 18 18 17 16 11 14 14 15 16 15 15 15 16
13 13 15 18 21 20 20 20 21 24 26 30 28 25 24 24 22 20 20 18 16 16 15 15 15 15 14 15 21 19 17 17 17 18 16 16 16 15 14 15 16 18 19
Wind_Direction
211 213 214 219 222 220 217 217 216 213 218 211 216 218 218 221 226 233 234 229 235 240 241 241 252 250 252 256 260 264 260 263 263 268 271 282 284 293 273 275 281 273 269
210 212 215 217 217 216 219 219 218 217 216 219 220 221 224 229 231 235 235 231 239 236 237 239 245 251 260 256 258 258 257 255 254 263 268 275 278 277 281 277 276 272 268
208 211 210 212 216 215 222 218 219 219 219 217 220 220 225 229 234 235 234 234 232 234 233 243 248 253 248 252 254 251 261 263 257 258 267 270 273 276 280 282 283 280 277
211 208 211 213 217 219 217 225 221 222 220 217 217 220 225 230 230 233 235 234 232 238 240 243 243 241 240 243 254 258 257 257 260 264 269 275 278 281 278 281 282 283 281
211 212 215 218 218 216 218 228 226 225 222 222 220 221 223 225 231 235 233 234 238 241 243 249 250 248 250 256 255 260 254 254 259 265 270 275 278 280 280 279 276 279 281
218 218 218 218 215 220 221 223 228 229 226 224 224 225 227 229 233 234 239 242 242 246 251 259 256 256 253 255 259 262 263 260 262 262 267 270 275 280 285 280 283 284 283
223 222 218 218 219 221 223 221 222 225 226 227 226 228 232 234 233 237 240 239 249 252 258 258 261 263 261 257 261 263 264 263 266 270 273 277 279 281 282 288 285 281 283
226 225 220 220 220 218 217 219 222 221 224 228 231 230 232 236 237 242 245 247 247 254 258 259 265 261 262 266 271 271 270 269 265 269 274 275 277 280 288 293 296 296 296
227 225 222 222 220 217 221 221 223 226 233 230 233 235 239 244 246 246 245 246 249 251 251 256 260 265 272 277 278 273 268 266 270 273 276 279 280 285 287 293 296 289 297
242 228 225 226 224 218 217 228 223 218 221 223 231 239 242 245 246 246 242 241 241 244 250 260 261 266 273 274 275 281 271 261 265 267 268 274 281 285 290 300 300 299 300
243 237 227 227 232 225 223 224 224 219 216 229 232 237 239 244 242 240 235 239 239 249 249 252 261 262 265 271 274 262 247 247 258 263 266 270 274 291 307 320 337 358 18
244 234 233 228 227 229 220 227 228 224 228 234 232 237 234 238 241 239 240 240 243 247 244 250 258 260 272 267 254 246 245 254 245 220 210 196 210 278 300 2 48 59 40
282 228 230 227 224 220 224 223 229 225 224 232 243 229 233 232 234 239 238 241 234 237 242 248 260 260 259 260 256 256 252 227 207 200 197 196 216 218 193 60 69 78 54
293 268 224 224 227 223 210 216 218 218 216 234 245 231 239 237 237 239 239 233 228 227 235 252 252 250 250 247 247 242 214 198 196 202 201 194 203 225 201 198 211 204 247
279 278 271 244 223 226 221 202 213 217 221 225 222 218 234 237 240 236 236 224 224 234 238 245 244 236 234 235 227 209 197 198 189 196 199 203 204 212 221 227 227 249 265
274 278 279 285 242 227 224 220 220 216 218 223 218 225 229 232 237 232 222 226 235 236 239 237 230 218 216 208 202 198 195 195 200 206 211 215 216 223 235 247 237 249 262
267 267 270 279 265 230 215 205 219 215 206 228 219 240 237 230 229 219 223 225 224 221 216 224 221 206 208 206 203 202 202 208 213 220 222 222 224 232 236 236 254 254 262
263 257 248 265 263 240 216 181 185 201 226 247 240 231 230 219 218 219 219 217 214 211 203 211 209 208 207 206 203 204 208 220 223 229 226 227 230 233 240 247 247 250 256
255 255 251 244 243 230 221 206 210 217 216 237 249 226 221 211 209 210 211 216 220 217 207 213 213 209 204 202 204 210 218 227 226 232 227 232 240 244 236 237 239 243 245
247 255 254 249 238 227 225 223 222 206 229 236 238 218 217 204 200 201 203 198 204 206 211 212 214 208 208 211 217 221 223 228 227 225 229 237 243 238 244 243 227 248 266
239 242 258 243 237 224 226 218 229 228 232 228 232 222 222 213 206 212 209 206 205 208 207 213 213 216 217 219 221 219 223 223 223 228 236 241 238 239 245 240 248 247 256
233 235 238 243 238 231 227 228 225 224 223 223 223 221 226 209 209 213 213 215 214 214 217 216 216 226 234 231 222 218 221 223 224 228 226 223 230 236 235 242 241 245 250
226 227 230 237 227 226 226 228 223 222 223 220 218 215 222 206 206 218 218 218 218 218 216 222 223 220 220 225 215 211 222 223 225 223 217 221 225 232 237 244 248 252 256
222 218 223 226 230 221 220 227 229 220 217 220 209 205 221 198 202 212 217 217 213 214 214 217 221 216 212 207 212 212 216 216 217 227 223 229 232 236 242 241 245 250 256
212 209 214 219 222 231 228 236 231 223 215 217 205 207 202 196 200 204 202 203 199 200 203 204 203 203 210 211 208 210 215 215 216 231 224 234 236 238 238 242 250 255 258
204 212 218 223 227 225 235 240 234 222 216 208 208 200 192 188 187 189 190 191 189 189 191 201 206 199 209 218 213 217 222 223 225 233 236 241 244 246 251 253 256 259 263
Height
1512 1517 1521 1524 1528 1532 1535 1538 1541 1546 1548 1551 1553 1556 1559 1562 1565 1567 1570 1573 1574 1575 1576 1578 1579 1580 1582 1583 1582 1582 1581 1581 1581 1580 1579 1578 1576 1575 1575 1575 1573 1573 1573
1508 1512 1516 1520 1524 1528 1531 1533 1536 1539 1543 1545 1548 1552 1554 1558 1560 1562 1564 1567 1568 1571 1573 1573 1574 1576 1577 1577 1577 1577 1577 1577 1576 1575 1575 1574 1573 1572 1570 1569 1569 1570 1569
1503 1506 1510 1514 1518 1522 1525 1529 1531 1533 1536 1541 1543 1547 1550 1553 1556 1558 1559 1561 1563 1565 1567 1568 1569 1570 1570 1572 1572 1571 1572 1571 1570 1570 1570 1569 1568 1568 1566 1565 1564 1564 1562
1499 1502 1503 1506 1510 1515 1520 1523 1526 1528 1531 1535 1539 1542 1546 1549 1552 1554 1555 1557 1558 1560 1561 1562 1563 1564 1564 1565 1566 1565 1566 1565 1566 1565 1564 1564 1563 1562 1561 1561 1560 1559 1558
1492 1495 1497 1501 1506 1510 1514 1517 1521 1524 1527 1531 1535 1538 1541 1544 1547 1549 1551 1553 1553 1555 1556 1556 1556 1556 1557 1558 1559 1560 1560 1559 1561 1561 1559 1558 1557 1557 1557 1556 1554 1554 1552
1487 1489 1493 1495 1499 1502 1506 1510 1514 1517 1521 1524 1529 1533 1537 1540 1542 1544 1546 1548 1550 1550 1551 1551 1551 1551 1551 1551 1552 1552 1553 1553 1553 1554 1554 1553 1552 1551 1551 1550 1548 1546 1544
1481 1484 1486 1489 1492 1495 1500 1503 1505 1509 1514 1518 1522 1527 1530 1533 1536 1538 1540 1543 1545 1546 1546 1547 1548 1550 1547 1545 1546 1546 1547 1547 1547 1547 1547 1547 1546 1546 1544 1542 1541 1540 1537
1476 1479 1481 1483 1486 1489 1492 1495 1498 1503 1506 1511 1516 1520 1524 1527 1529 1531 1534 1536 1537 1539 1540 1540 1541 1542 1541 1541 1540 1540 1541 1540 1540 1541 1540 1541 1540 1539 1537 1535 1533 1530 1527
1471 1472 1475 1477 1480 1483 1485 1487 1490 1496 1501 1504 1508 1513 1516 1520 1522 1526 1529 1529 1530 1531 1534 1533 1534 1535 1536 1535 1534 1536 1536 1536 1535 1535 1535 1534 1534 1533 1532 1530 1528 1525 1522
1467 1467 1469 1471 1472 1475 1480 1484 1488 1490 1492 1499 1502 1506 1511 1513 1516 1519 1522 1523 1525 1526 1528 1527 1527 1529 1528 1529 1529 1530 1529 1530 1530 1529 1530 1529 1529 1527 1526 1525 1523 1521 1518
1464 1464 1464 1464 1465 1468 1474 1478 1482 1485 1488 1492 1494 1499 1503 1506 1509 1512 1514 1516 1519 1519 1521 1520 1521 1522 1522 1523 1523 1524 1524 1526 1526 1527 1526 1526 1525 1524 1522 1521 1520 1518 1516
1459 1459 1458 1458 1460 1463 1467 1472 1475 1478 1482 1484 1490 1493 1496 1499 1502 1506 1509 1511 1512 1513 1515 1515 1515 1516 1517 1518 1519 1519 1521 1522 1523 1524 1524 1525 1525 1522 1521 1520 1519 1517 1516
1453 1452 1451 1450 1450 1452 1458 1464 1468 1469 1474 1479 1483 1484 1491 1493 1497 1499 1502 1503 1505 1507 1509 1508 1510 1511 1513 1514 1515 1516 1516 1518 1521 1522 1522 1522 1522 1521 1520 1519 1517 1517 1516
1449 1447 1441 1441 1446 1448 1445 1453 1461 1466 1466 1471 1469 1467 1487 1487 1489 1492 1495 1496 1498 1500 1501 1503 1505 1507 1508 1509 1511 1511 1513 1516 1519 1520 1520 1520 1519 1519 1520 1520 1520 1519 1520
1446 1442 1438 1441 1429 1439 1451 1445 1449 1455 1460 1465 1471 1476 1478 1481 1482 1485 1487 1489 1492 1493 1497 1498 1499 1500 1503 1504 1506 1508 1511 1511 1514 1516 1517 1517 1518 1519 1519 1518 1518 1519 1519
1443 1438 1435 1438 1436 1439 1440 1439 1448 1456 1462 1461 1467 1470 1471 1474 1476 1479 1481 1483 1486 1489 1492 1492 1494 1497 1500 1502 1504 1505 1507 1509 1511 1512 1513 1514 1515 1516 1517 1516 1515 1516 1517
1438 1435 1432 1430 1430 1431 1426 1431 1442 1450 1454 1457 1461 1460 1460 1466 1469 1472 1475 1478 1481 1483 1485 1487 1489 1493 1496 1500 1502 1504 1506 1508 1508 1509 1510 1511 1512 1513 1513 1513 1513 1513 1513
1432 1431 1432 1430 1430 1429 1431 1434 1439 1444 1450 1453 1459 1457 1459 1458 1460 1464 1468 1473 1474 1476 1480 1483 1486 1489 1493 1495 1498 1501 1504 1505 1505 1506 1506 1507 1508 1509 1510 1510 1509 1510 1510
1426 1427 1427 1429 1430 1431 1433 1432 1434 1438 1440 1446 1449 1453 1454 1454 1455 1459 1463 1466 1469 1474 1479 1483 1485 1487 1489 1491 1494 1497 1499 1501 1502 1502 1503 1504 1504 1503 1505 1505 1505 1505 1506
1419 1419 1419 1421 1423 1426 1429 1426 1428 1433 1438 1447 1444 1445 1447 1449 1450 1454 1458 1463 1466 1470 1476 1479 1482 1484 1485 1486 1488 1491 1494 1496 1497 1499 1500 1500 1501 1500 1500 1501 1501 1503 1504
1412 1415 1414 1414 1415 1418 1421 1422 1426 1430 1435 1440 1440 1440 1440 1444 1448 1451 1457 1462 1463 1468 1470 1474 1477 1478 1479 1481 1484 1487 1491 1492 1492 1494 1496 1497 1498 1497 1497 1498 1498 1499 1500
1405 1407 1409 1409 1410 1410 1413 1416 1420 1424 1429 1432 1435 1435 1437 1441 1448 1450 1452 1457 1460 1464 1466 1469 1472 1474 1476 1477 1480 1483 1486 1487 1488 1489 1491 1493 1494 1494 1495 1495 1494 1495 1496
1398 1401 1403 1403 1402 1406 1407 1411 1415 1420 1423 1426 1428 1427 1430 1435 1443 1446 1448 1452 1455 1457 1462 1465 1467 1469 1471 1473 1475 1478 1481 1483 1485 1486 1487 1488 1489 1490 1490 1491 1491 1491 1491
1391 1393 1397 1399 1400 1401 1403 1406 1408 1411 1415 1419 1421 1422 1425 1431 1437 1442 1446 1449 1452 1454 1457 1460 1462 1463 1466 1469 1472 1473 1476 1479 1481 1483 1484 1485 1485 1485 1485 1485 1485 1485 1485
1384 1386 1389 1392 1394 1396 1398 1399 1401 1404 1408 1412 1415 1418 1421 1427 1433 1437 1442 1445 1447 1450 1452 1455 1458 1460 1463 1466 1469 1471 1471 1473 1477 1477 1478 1480 1480 1479 1478 1477 1478 1479 1479
1380 1382 1384 1386 1388 1390 1392 1393 1394 1398 1401 1405 1408 1413 1419 1423 1429 1434 1438 1441 1443 1446 1448 1453 1456 1457 1460 1463 1462 1464 1467 1469 1470 1473 1474 1476 1475 1474 1474 1474 1474 1474 1473